Regional Weather Roundup
Issued by NWS

Home | Current Version | Previous Version | Text Only | Print | Product List | Glossary Off
Versions: 1 2 3 4 5 6 7 8 9 10 11 12 13 14 15 16 17 18 19 20 21 22 23 24 25 26 27 28 29 30 31 32 33 34 35 36 37 38 39 40 41 42 43 44 45 46 47 48 49 50

000
ASUS45 KCYS 281610
RWRWY

WYOMING REGIONAL WEATHER ROUNDUP
NATIONAL WEATHER SERVICE CHEYENNE WY
1000 AM MDT FRI AUG 28 2015

NOTE:  "FAIR" INDICATES FEW OR NO CLOUDS BELOW 12,000 FEET
WITH NO SIGNIFICANT WEATHER AND/OR OBSTRUCTIONS TO VISIBILITY.

WYZ001-281700-
YELLOWSTONE NATIONAL PARK

CITY           SKY/WX    TMP DP  RH WIND       PRES   REMARKS
LK YELLOWSTONE   N/A     53  47  79 SE3       30.44F
W YELLOWSTONE  NOT AVBL

$$
WYZ002>013-054>058-071-098>099-281700-
NORTHERN WYOMING

CITY           SKY/WX    TMP DP  RH WIND       PRES   REMARKS
JACKSON        FAIR      55  46  71 CALM      30.38S
CODY           FAIR      68  45  42 S6        30.22F
GREYBULL       FAIR      64  51  62 CALM      30.19S HAZE
WORLAND        FAIR      62  52  69 W3        30.21R HAZE
SHERIDAN       FAIR      76  50  40 CALM      30.14R
BUFFALO        FAIR      79  40  24 N7        30.21R
GILLETTE       FAIR      75  47  36 W12       30.15R
HULETT         FAIR      72  50  46 SW6       30.14R
NEWCASTLE      FAIR      72  50  46 W3        30.14R

$$
WYZ014>020-022>026-101>103-281700-
CENTRAL WYOMING

CITY           SKY/WX    TMP DP  RH WIND       PRES   REMARKS
BIG PINEY      FAIR      60  40  47 E3        30.41S
PINEDALE       FAIR      59  45  58 CALM      30.42S
DUBOIS         FAIR      59  41  51 NW5       30.37S
LANDER         FAIR      63  48  58 CALM      30.28S
RIVERTON       FAIR      62  51  67 W3        30.29S
CASPER         FAIR      68  45  43 SW18      30.26R
DOUGLAS        FAIR      73  46  38 NW12      30.22R

$$
WYZ021-027>030-104>119-281700-
SOUTHERN WYOMING

CITY           SKY/WX    TMP DP  RH WIND       PRES   REMARKS
EVANSTON       FAIR      67  41  38 SW7       30.41R
KEMMERER       FAIR      66  41  39 CALM      30.42S
FORT BRIDGER   SUNNY     68  39  34 CALM      30.43S
ROCK SPRINGS   FAIR      63  43  48 W7        30.39R
DIXON          FAIR      62  46  56 CALM      30.42R
RAWLINS        FAIR      62  45  53 SW9       30.38S
SARATOGA       FAIR      61  46  59 S5        30.40S
LARAMIE        FAIR      61  47  59 VRB3      30.38R
CHEYENNE       CLOUDY    67  47  48 NW15      30.29R
TORRINGTON     FAIR      73  51  46 W10       30.14S
PINE BLUFFS    FAIR      77  41  27 NW16G23   30.22R

$$



USA.gov is the U.S. government's official web portal to all federal, state and local government web resources and services.